Location: Ay?beleni
(36.6500°N, 30.3000°E)
Time: 10:42:15
(UTC+00:00)

Envisat - Pass Details

Date: 10 August 2021
Orbit: 764 x 766 km, 98.2° (Epoch: 21 September)

Event Time Altitude Azimuth Distance (km) Brightness Sun altitude
Rises 02:30:38 0° 23° (NNE) 3,237 7.1 -8.5°
Reaches altitude 10° 02:33:11 10° 34° (NNE) 2,307 6.5 -8.0°
Maximum altitude 02:37:43 32° 97° (E) 1,287 4.9 -7.2°
Drops below altitude 10° 02:42:13 10° 160° (SSE) 2,292 5.4 -6.4°
Sets 02:44:44 0° 170° (S) 3,213 6.1 -5.9°
